SR2ATJ-13 Weather Reports


time (UTC)temp
C
wind
direction
speed
KPH
gust
KPH
rain 1hr
cm
rain 24hr
cm
rain mn
cm
humidity
%
barometer
mb
20260905210503 12 0.0 0.0 0.00 0.00 0.00 10 1016.6
20260905205504 12 0.0 0.0 0.00 0.00 0.00 10 1016.5
20260905204504 12 0.0 0.0 0.00 0.00 0.00 10 1016.5
20260905203504 12 0.0 0.0 0.00 0.00 0.00 10 1016.4
20260905202504 12 0.0 0.0 0.00 0.00 0.00 10 1016.4
20260905201503 12 0.0 0.0 0.00 0.00 0.00 10 1016.4
20260905200503 13 0.0 0.0 0.00 0.00 0.00 10 1016.2
20260905195502 13 0.0 0.0 0.00 0.00 0.00 10 1016.2
20260905194504 13 0.0 0.0 0.00 0.00 0.00 10 1016.1
20260905193503 13 0.0 0.0 0.00 0.00 0.00 10 1016.0
20260905192503 13 0.0 0.0 0.00 0.00 0.00 10 1015.9
20260905191504 13 0.0 0.0 0.00 0.00 0.00 10 1015.9
20260905190503 12 0.0 0.0 0.00 0.00 0.00 10 1015.8
20260905185503 12 0.0 0.0 0.00 0.00 0.00 10 1015.8
20260905184503 12 0.0 0.0 0.00 0.00 0.00 10 1015.8
20260905183503 12 0.0 0.0 0.00 0.00 0.00 99 1015.7
20260905182503 12 0.0 0.0 0.00 0.00 0.00 98 1015.6
20260905181503 12 0.0 0.0 0.00 0.00 0.00 97 1015.7
20260905180503 12 0.0 0.0 0.00 0.00 0.00 97 1015.7
20260905175503 12 0.0 0.0 0.00 0.00 0.00 96 1015.6
20260905174504 12 0.0 0.0 0.00 0.00 0.00 95 1015.6
20260905173504 12 0.0 0.0 0.00 0.00 0.00 93 1015.5
20260905172504 13 0.0 0.0 0.00 0.00 0.00 92 1015.4
20260905171505 12 0.0 0.0 0.00 0.00 0.00 90 1015.6
20260905170504 13 0.0 0.0 0.00 0.00 0.00 82 1015.8
20260905165504 16 0.0 0.0 0.00 0.00 0.00 75 1015.0
20260905164504 17 0.0 0.0 0.00 0.00 0.00 67 1014.1
20260905163504 17 0.0 0.0 0.00 0.00 0.00 67 1013.9
20260905162504 17 0.0 0.0 0.00 0.00 0.00 69 1014.0
20260905161504 17 0.0 0.0 0.00 0.00 0.00 68 1014.0
20260905160504 17 0.0 0.0 0.00 0.00 0.00 68 1013.8
20260905155505 17 0.0 0.0 0.00 0.00 0.00 66 1014.1
20260905154503 18 0.0 0.0 0.00 0.00 0.00 66 1014.2
20260905153504 18 0.0 0.0 0.00 0.00 0.00 65 1014.0
20260905152504 18 0.0 0.0 0.00 0.00 0.00 64 1013.8
20260905150504 18 0.0 0.0 0.00 0.00 0.00 63 1013.5
20260905145504 18 0.0 0.0 0.00 0.00 0.00 63 1013.6
20260905144504 18 0.0 0.0 0.00 0.00 0.00 66 1013.7
20260905142505 18 0.0 0.0 0.00 0.00 0.00 67 1013.7
20260905141504 18 0.0 0.0 0.00 0.00 0.00 64 1013.5
20260905140504 18 0.0 0.0 0.00 0.00 0.00 64 1013.6
20260905135503 18 0.0 0.0 0.00 0.00 0.00 69 1014.0
20260905133504 17 0.0 0.0 0.00 0.00 0.00 71 1013.8
20260905132504 17 0.0 0.0 0.00 0.00 0.00 69 1013.8
20260905131504 17 0.0 0.0 0.00 0.00 0.00 66 1013.7
20260905130503 18 0.0 0.0 0.00 0.00 0.00 63 1013.5
20260905125503 18 0.0 0.0 0.00 0.00 0.00 61 1013.5
20260905124503 19 0.0 0.0 0.00 0.00 0.00 59 1013.3
20260905123504 20 0.0 0.0 0.00 0.00 0.00 58 1013.1
20260905122504 20 0.0 0.0 0.00 0.00 0.00 57 1013.0
20260905121504 20 0.0 0.0 0.00 0.00 0.00 58 1013.0
20260905120504 20 0.0 0.0 0.00 0.00 0.00 59 1013.0
20260905115503 20 0.0 0.0 0.00 0.00 0.00 57 1012.9
20260905113504 20 0.0 0.0 0.00 0.00 0.00 57 1012.9
20260905112504 21 0.0 0.0 0.00 0.00 0.00 57 1012.9
20260905111503 21 0.0 0.0 0.00 0.00 0.00 57 1013.1
20260905110503 20 0.0 0.0 0.00 0.00 0.00 56 1012.9
20260905105503 21 0.0 0.0 0.00 0.00 0.00 57 1012.9
20260905104503 20 0.0 0.0 0.00 0.00 0.00 57 1013.0
20260905103503 20 0.0 0.0 0.00 0.00 0.00 59 1013.1
20260905102503 19 0.0 0.0 0.00 0.00 0.00 59 1013.2
20260905101503 20 0.0 0.0 0.00 0.00 0.00 59 1013.1
20260905100503 19 0.0 0.0 0.00 0.00 0.00 60 1013.0
20260905095503 18 0.0 0.0 0.00 0.00 0.00 58 1012.8
20260905094503 18 0.0 0.0 0.00 0.00 0.00 60 1013.0
20260905093503 18 0.0 0.0 0.00 0.00 0.00 58 1012.8
20260905092503 19 0.0 0.0 0.00 0.00 0.00 58 1012.8
20260905091504 19 0.0 0.0 0.00 0.00 0.00 60 1012.7
20260905090503 18 0.0 0.0 0.00 0.00 0.00 63 1012.8
20260905085504 18 0.0 0.0 0.00 0.00 0.00 62 1012.7
20260905083503 18 0.0 0.0 0.00 0.00 0.00 62 1012.5
20260905082503 20 0.0 0.0 0.00 0.00 0.00 63 1012.4
20260905081502 19 0.0 0.0 0.00 0.00 0.00 64 1012.3
20260905080503 18 0.0 0.0 0.00 0.00 0.00 66 1012.3
20260905075503 18 0.0 0.0 0.00 0.00 0.00 67 1012.3
20260905074503 18 0.0 0.0 0.00 0.00 0.00 69 1012.1
20260905073503 17 0.0 0.0 0.00 0.00 0.00 68 1011.9
20260905072504 18 0.0 0.0 0.00 0.00 0.00 69 1011.9
20260905071504 18 0.0 0.0 0.00 0.00 0.00 69 1011.7
20260905070504 17 0.0 0.0 0.00 0.00 0.00 72 1011.6
20260905065504 17 0.0 0.0 0.00 0.00 0.00 72 1011.6
20260905063504 17 0.0 0.0 0.00 0.00 0.00 73 1011.4
20260905062504 17 0.0 0.0 0.00 0.00 0.00 74 1011.2
20260905061503 16 0.0 0.0 0.00 0.00 0.00 76 1011.2
20260905055504 16 0.0 0.0 0.00 0.00 0.00 80 1011.0
20260905054504 16 0.0 0.0 0.00 0.00 0.00 81 1011.0
20260905053504 16 0.0 0.0 0.00 0.00 0.00 83 1010.7
20260905051504 15 0.0 0.0 0.00 0.00 0.00 87 1010.7
20260905050503 15 0.0 0.0 0.00 0.00 0.00 89 1010.6
20260905045504 14 0.0 0.0 0.00 0.00 0.00 89 1010.5
20260905043504 14 0.0 0.0 0.00 0.00 0.00 89 1010.2
20260905042504 13 0.0 0.0 0.00 0.00 0.00 89 1010.1
20260905041504 13 0.0 0.0 0.00 0.00 0.00 88 1010.0
20260905040503 14 0.0 0.0 0.00 0.00 0.00 86 1009.9
20260905035504 14 0.0 0.0 0.00 0.00 0.00 86 1009.8
20260905033504 14 0.0 0.0 0.00 0.00 0.00 86 1009.7
20260905032503 14 0.0 0.0 0.00 0.00 0.00 86 1009.6
20260905031503 14 0.0 0.0 0.00 0.00 0.00 85 1009.5
20260905030503 14 0.0 0.0 0.00 0.00 0.00 85 1009.4
20260905025503 14 0.0 0.0 0.00 0.00 0.00 85 1009.3
20260905024504 14 0.0 0.0 0.00 0.00 0.00 85 1009.3
20260905023504 14 0.0 0.0 0.00 0.00 0.00 85 1009.3
20260905022503 14 0.0 0.0 0.00 0.00 0.00 85 1009.3
20260905021503 14 0.0 0.0 0.00 0.00 0.00 87 1009.1
20260905020503 14 0.0 0.0 0.00 0.00 0.00 88 1009.0
20260905015503 14 0.0 0.0 0.00 0.00 0.00 89 1008.9
20260905014504 14 0.0 0.0 0.00 0.00 0.00 90 1008.7
20260905013503 14 0.0 0.0 0.00 0.00 0.00 92 1008.6
20260905012503 15 0.0 0.0 0.00 0.00 0.00 95 1008.7
20260905011503 15 0.0 0.0 0.00 0.00 0.00 98 1008.5
20260905010503 15 0.0 0.0 0.00 0.00 0.00 10 1008.3
20260905005503 15 0.0 0.0 0.00 0.00 0.00 10 1008.1
20260905004504 15 0.0 0.0 0.00 0.00 0.00 10 1007.8
20260905003503 16 0.0 0.0 0.00 0.00 0.00 10 1007.8
20260905002503 16 0.0 0.0 0.00 0.00 0.00 10 1007.9
20260905001503 16 0.0 0.0 0.00 0.00 0.00 97 1007.6
20260905000504 16 0.0 0.0 0.00 0.00 0.00 93 1007.6
20260904235503 17 0.0 0.0 0.00 0.00 0.00 87 1007.1
20260904234504 17 0.0 0.0 0.00 0.00 0.00 87 1006.8
20260904233503 17 0.0 0.0 0.00 0.00 0.00 87 1007.0
20260904232503 17 0.0 0.0 0.00 0.00 0.00 87 1006.8
20260904231503 17 0.0 0.0 0.00 0.00 0.00 87 1006.7
20260904230503 17 0.0 0.0 0.00 0.00 0.00 87 1006.6
20260904225503 17 0.0 0.0 0.00 0.00 0.00 87 1006.4
20260904224502 17 0.0 0.0 0.00 0.00 0.00 87 1006.2
20260904223503 17 0.0 0.0 0.00 0.00 0.00 87 1006.0
20260904222503 17 0.0 0.0 0.00 0.00 0.00 87 1006.0
20260904221505 17 0.0 0.0 0.00 0.00 0.00 87 1005.7
20260904220504 17 0.0 0.0 0.00 0.00 0.00 88 1005.6
20260904215504 17 0.0 0.0 0.00 0.00 0.00 89 1005.7
20260904214504 17 0.0 0.0 0.00 0.00 0.00 94 1005.5
20260904213503 18 0.0 0.0 0.00 0.00 0.00 98 1005.4
20260904212504 18 0.0 0.0 0.00 0.00 0.00 10 1005.2
20260904211505 18 0.0 0.0 0.00 0.00 0.00 10 1005.0